Location: Albany
(42.6526°N, 73.7562°W)
Time: 09:38:45
(UTC+00:00)

GENESIS II - Pass Details

Date: 19 November 2019
Orbit: 478 x 551 km, 64.5° (Epoch: 06 December)

Event Time Altitude Azimuth Distance (km) Brightness Sun altitude
Rises 23:11:31 0° 207° (SSW) 2,653 8.3 -18.7°
Reaches altitude 10° 23:13:41 10° 205° (SSW) 1,779 7.4 -19.1°
Maximum altitude 23:17:39 71° 122° (ESE) 576 4.2 -19.8°
Enters shadow 23:18:21 56° 64° (ENE) 648 4.3 -19.9°
